| time (UTC) | temp C | wind direction | speed KPH | gust KPH | rain 1hr cm | rain 24hr cm | rain mn cm | humidity % | barometer mb |
| 20260505223605 | 10 | 11 | 4.8 | 17.7 | 0.00 | 0.00 | 0.00 | 77 | 1013.6 |
| 20260505222703 | 10 | 4 | 6.4 | 24.1 | 0.00 | 0.00 | 0.00 | 76 | 1013.6 |
| 20260505221805 | 11 | 3 | 8.0 | 22.5 | 0.00 | 0.00 | 0.00 | 76 | 1013.6 |
| 20260505220904 | 11 | 6 | 9.7 | 22.5 | 0.00 | 0.00 | 0.00 | 76 | 1013.5 |
| 20260505220005 | 11 | 16 | 4.8 | 12.9 | 0.00 | 0.00 | 0.00 | 76 | 1013.5 |
| 20260505215618 | 11 | 13 | 4.8 | 17.7 | 0.00 | 0.00 | 0.00 | 76 | 1013.4 |
| 20260505214503 | 11 | 7 | 3.2 | 14.5 | 0.00 | 0.00 | 0.00 | 75 | 1013.4 |
| 20260505213605 | 11 | 3 | 3.2 | 9.7 | 0.00 | 0.00 | 0.00 | 75 | 1013.2 |
| 20260505212705 | 11 | 7 | 4.8 | 16.1 | 0.00 | 0.00 | 0.00 | 74 | 1013.2 |
| 20260505212020 | 12 | 5 | 8.0 | 19.3 | 0.00 | 0.00 | 0.00 | 74 | 1013.1 |
| 20260505210905 | 12 | 13 | 4.8 | 16.1 | 0.00 | 0.00 | 0.00 | 72 | 1013.1 |
| 20260505210005 | 12 | 17 | 3.2 | 14.5 | 0.00 | 0.00 | 0.00 | 72 | 1013.0 |
| 20260505205403 | 12 | 7 | 4.8 | 14.5 | 0.00 | 0.00 | 0.00 | 72 | 1013.0 |
| 20260505204719 | 12 | 9 | 4.8 | 14.5 | 0.00 | 0.00 | 0.00 | 72 | 1012.9 |
| 20260505203818 | 12 | 5 | 6.4 | 20.9 | 0.00 | 0.00 | 0.00 | 73 | 1013.0 |
| 20260505202705 | 12 | 2 | 3.2 | 14.5 | 0.00 | 0.00 | 0.00 | 73 | 1012.8 |
| 20260505201805 | 12 | 6 | 3.2 | 12.9 | 0.00 | 0.00 | 0.00 | 73 | 1012.7 |
| 20260505200905 | 12 | 8 | 6.4 | 20.9 | 0.00 | 0.00 | 0.00 | 73 | 1012.7 |
| 20260505200218 | 12 | 9 | 6.4 | 17.7 | 0.00 | 0.00 | 0.00 | 73 | 1012.7 |
| 20260505195404 | 13 | 3 | 4.8 | 17.7 | 0.00 | 0.00 | 0.00 | 74 | 1012.6 |
| 20260505194505 | 13 | 9 | 4.8 | 16.1 | 0.00 | 0.00 | 0.00 | 74 | 1012.4 |
| 20260505193818 | 13 | 10 | 4.8 | 16.1 | 0.00 | 0.00 | 0.00 | 74 | 1012.4 |
| 20260505192704 | 13 | 9 | 6.4 | 24.1 | 0.00 | 0.00 | 0.00 | 73 | 1012.3 |
| 20260505191803 | 13 | 5 | 8.0 | 22.5 | 0.00 | 0.00 | 0.00 | 72 | 1012.2 |
| 20260505191118 | 13 | 354 | 8.0 | 22.5 | 0.00 | 0.00 | 0.00 | 71 | 1012.2 |
| 20260505190005 | 13 | 358 | 6.4 | 22.5 | 0.00 | 0.00 | 0.00 | 70 | 1012.0 |
| 20260505185403 | 14 | 4 | 4.8 | 22.5 | 0.00 | 0.00 | 0.00 | 69 | 1011.9 |
| 20260505184503 | 14 | 3 | 3.2 | 12.9 | 0.00 | 0.00 | 0.00 | 69 | 1011.8 |
| 20260505183604 | 14 | 8 | 3.2 | 14.5 | 0.00 | 0.00 | 0.00 | 69 | 1011.8 |
| 20260505182703 | 14 | 16 | 3.2 | 16.1 | 0.00 | 0.00 | 0.00 | 69 | 1011.7 |
| 20260505181805 | 14 | 6 | 3.2 | 11.3 | 0.00 | 0.00 | 0.00 | 70 | 1011.8 |
| 20260505180903 | 14 | 354 | 3.2 | 8.0 | 0.00 | 0.00 | 0.00 | 70 | 1011.7 |
| 20260505180003 | 14 | 345 | 3.2 | 8.0 | 0.00 | 0.00 | 0.00 | 69 | 1011.8 |
| 20260505175404 | 14 | 342 | 4.8 | 11.3 | 0.00 | 0.00 | 0.00 | 69 | 1011.8 |
| 20260505174718 | 14 | 340 | 3.2 | 11.3 | 0.00 | 0.00 | 0.00 | 69 | 1011.7 |
| 20260505173605 | 14 | 344 | 3.2 | 8.0 | 0.00 | 0.00 | 0.00 | 69 | 1011.8 |
| 20260505172919 | 14 | 351 | 3.2 | 8.0 | 0.00 | 0.00 | 0.00 | 69 | 1011.8 |
| 20260505171803 | 14 | 350 | 4.8 | 14.5 | 0.00 | 0.00 | 0.00 | 68 | 1011.8 |
| 20260505170904 | 14 | 347 | 3.2 | 14.5 | 0.00 | 0.00 | 0.00 | 68 | 1012.0 |
| 20260505170003 | 15 | 343 | 4.8 | 11.3 | 0.00 | 0.00 | 0.00 | 67 | 1012.0 |
| 20260505165405 | 15 | 354 | 4.8 | 9.7 | 0.00 | 0.00 | 0.00 | 67 | 1012.0 |
| 20260505164503 | 15 | 353 | 3.2 | 8.0 | 0.00 | 0.00 | 0.00 | 67 | 1012.0 |
| 20260505163603 | 15 | 339 | 4.8 | 11.3 | 0.00 | 0.00 | 0.00 | 66 | 1012.0 |
| 20260505162703 | 15 | 351 | 4.8 | 12.9 | 0.00 | 0.00 | 0.00 | 66 | 1012.0 |
| 20260505162020 | 15 | 347 | 4.8 | 16.1 | 0.00 | 0.00 | 0.00 | 65 | 1012.0 |
| 20260505160904 | 15 | 7 | 3.2 | 14.5 | 0.00 | 0.00 | 0.00 | 66 | 1011.9 |
| 20260505152705 | 15 | 342 | 3.2 | 8.0 | 0.00 | 0.00 | 0.00 | 68 | 1012.1 |
| 20260505151803 | 15 | 335 | 3.2 | 8.0 | 0.00 | 0.00 | 0.00 | 68 | 1012.1 |
| 20260505151119 | 15 | 351 | 4.8 | 12.9 | 0.00 | 0.00 | 0.00 | 68 | 1012.1 |
| 20260505124506 | 16 | 356 | 1.6 | 8.0 | 0.00 | 0.00 | 0.00 | 64 | 1012.6 |
| 20260505123605 | 16 | 13 | 1.6 | 9.7 | 0.00 | 0.00 | 0.00 | 64 | 1012.6 |
| 20260505122705 | 16 | 14 | 1.6 | 12.9 | 0.00 | 0.00 | 0.00 | 65 | 1012.6 |
| 20260505121804 | 16 | 353 | 3.2 | 11.3 | 0.00 | 0.00 | 0.00 | 64 | 1012.6 |
| 20260505120905 | 16 | 337 | 1.6 | 6.4 | 0.00 | 0.00 | 0.00 | 64 | 1012.6 |
| 20260505120004 | 16 | 3 | 1.6 | 4.8 | 0.00 | 0.00 | 0.00 | 65 | 1012.6 |
| 20260505115616 | 16 | 9 | 1.6 | 4.8 | 0.00 | 0.00 | 0.00 | 65 | 1012.7 |
| 20260505114504 | 15 | 2 | 1.6 | 9.7 | 0.00 | 0.00 | 0.00 | 65 | 1012.7 |
| 20260505113603 | 15 | 360 | 0.0 | 1.6 | 0.00 | 0.00 | 0.00 | 65 | 1012.7 |
| 20260505112703 | 15 | 6 | 1.6 | 8.0 | 0.00 | 0.00 | 0.00 | 66 | 1012.9 |
| 20260505111805 | 15 | 360 | 1.6 | 8.0 | 0.00 | 0.00 | 0.00 | 66 | 1012.9 |
| 20260505110904 | 14 | 5 | 1.6 | 8.0 | 0.00 | 0.00 | 0.00 | 67 | 1013.0 |
| 20260505101803 | 14 | 9 | 3.2 | 9.7 | 0.00 | 0.00 | 0.00 | 70 | 1013.2 |
| 20260505100904 | 14 | 13 | 3.2 | 12.9 | 0.00 | 0.00 | 0.00 | 71 | 1013.2 |
| 20260505100003 | 14 | 6 | 4.8 | 16.1 | 0.00 | 0.00 | 0.00 | 71 | 1013.2 |
| 20260505095405 | 14 | 8 | 6.4 | 17.7 | 0.00 | 0.00 | 0.00 | 72 | 1013.3 |
| 20260505094719 | 14 | 9 | 4.8 | 16.1 | 0.00 | 0.00 | 0.00 | 72 | 1013.3 |
| 20260505093603 | 13 | 360 | 6.4 | 19.3 | 0.00 | 0.00 | 0.00 | 77 | 1013.4 |
| 20260505092705 | 12 | 3 | 3.2 | 14.5 | 0.00 | 0.00 | 0.00 | 80 | 1013.6 |
| 20260505091805 | 12 | 12 | 0.0 | 6.4 | 0.00 | 0.00 | 0.00 | 83 | 1013.5 |
| 20260505090904 | 12 | 357 | 0.0 | 4.8 | 0.00 | 0.00 | 0.00 | 84 | 1013.5 |
| 20260505090220 | 12 | 327 | 1.6 | 8.0 | 0.00 | 0.00 | 0.00 | 85 | 1013.5 |
| 20260505085403 | 12 | 1 | 1.6 | 8.0 | 0.00 | 0.00 | 0.00 | 85 | 1013.6 |
| 20260505084503 | 12 | 336 | 1.6 | 6.4 | 0.00 | 0.00 | 0.00 | 85 | 1013.7 |
| 20260505083603 | 12 | 320 | 1.6 | 6.4 | 0.00 | 0.00 | 0.00 | 85 | 1013.6 |
| 20260505082705 | 12 | 344 | 1.6 | 8.0 | 0.00 | 0.00 | 0.00 | 86 | 1013.7 |
| 20260505081803 | 12 | 339 | 3.2 | 12.9 | 0.00 | 0.00 | 0.00 | 87 | 1013.7 |
| 20260505080903 | 11 | 342 | 3.2 | 11.3 | 0.00 | 0.00 | 0.00 | 90 | 1013.7 |
| 20260505080003 | 11 | 354 | 1.6 | 8.0 | 0.00 | 0.00 | 0.00 | 91 | 1013.7 |
| 20260505075405 | 10 | 359 | 3.2 | 11.3 | 0.00 | 0.00 | 0.00 | 91 | 1013.6 |
| 20260505074503 | 10 | 340 | 3.2 | 9.7 | 0.00 | 0.00 | 0.00 | 91 | 1013.7 |
| 20260505073605 | 10 | 354 | 3.2 | 14.5 | 0.00 | 0.00 | 0.00 | 91 | 1013.8 |
| 20260505072705 | 10 | 354 | 3.2 | 11.3 | 0.00 | 0.00 | 0.00 | 92 | 1013.8 |
| 20260505072018 | 10 | 355 | 0.0 | 8.0 | 0.00 | 0.00 | 0.00 | 92 | 1013.7 |
| 20260505070904 | 10 | 334 | 3.2 | 8.0 | 0.00 | 0.00 | 0.00 | 92 | 1013.9 |
| 20260505070217 | 10 | 330 | 3.2 | 8.0 | 0.00 | 0.00 | 0.00 | 92 | 1013.8 |
| 20260505065403 | 10 | 3 | 1.6 | 9.7 | 0.00 | 0.00 | 0.00 | 92 | 1013.8 |
| 20260505064505 | 10 | 341 | 0.0 | 4.8 | 0.00 | 0.00 | 0.00 | 92 | 1013.9 |
| 20260505063819 | 10 | 355 | 1.6 | 6.4 | 0.00 | 0.00 | 0.00 | 92 | 1013.8 |
| 20260505062916 | 10 | 342 | 1.6 | 4.8 | 0.00 | 0.00 | 0.00 | 92 | 1013.9 |
| 20260505062018 | 10 | 333 | 1.6 | 8.0 | 0.00 | 0.00 | 0.00 | 92 | 1013.8 |
| 20260505060903 | 10 | 347 | 1.6 | 3.2 | 0.00 | 0.00 | 0.00 | 93 | 1013.8 |
| 20260505060217 | 9 | 5 | 0.0 | 4.8 | 0.00 | 0.00 | 0.00 | 93 | 1013.8 |
| 20260505055404 | 9 | 5 | 1.6 | 6.4 | 0.00 | 0.00 | 0.00 | 93 | 1013.8 |
| 20260505054505 | 9 | 1 | 1.6 | 6.4 | 0.00 | 0.00 | 0.00 | 93 | 1013.9 |
| 20260505053604 | 9 | 4 | 1.6 | 8.0 | 0.00 | 0.00 | 0.00 | 93 | 1013.9 |
| 20260505052705 | 8 | 5 | 0.0 | 3.2 | 0.00 | 0.00 | 0.00 | 93 | 1014.0 |
| 20260505051804 | 8 | 5 | 1.6 | 3.2 | 0.00 | 0.00 | 0.00 | 93 | 1014.1 |
| 20260505050905 | 8 | 5 | 1.6 | 4.8 | 0.00 | 0.00 | 0.00 | 93 | 1014.0 |
| 20260505040904 | 8 | 0 | 0.0 | 0.0 | 0.00 | 0.00 | 0.00 | 93 | 1014.0 |
| 20260505040005 | 8 | 16 | 0.0 | 1.6 | 0.00 | 0.00 | 0.00 | 93 | 1014.0 |
| 20260505035404 | 8 | 16 | 0.0 | 1.6 | 0.00 | 0.00 | 0.00 | 93 | 1014.0 |
| 20260505034503 | 8 | 17 | 1.6 | 3.2 | 0.00 | 0.00 | 0.00 | 93 | 1014.1 |
| 20260505033818 | 8 | 15 | 1.6 | 6.4 | 0.00 | 0.00 | 0.00 | 93 | 1014.1 |
| 20260505032704 | 8 | 360 | 1.6 | 3.2 | 0.00 | 0.00 | 0.00 | 93 | 1014.2 |
| 20260505031804 | 8 | 360 | 0.0 | 3.2 | 0.00 | 0.00 | 0.00 | 92 | 1014.1 |
| 20260505031118 | 8 | 360 | 1.6 | 4.8 | 0.00 | 0.00 | 0.00 | 92 | 1014.1 |
| 20260505030217 | 8 | 360 | 3.2 | 6.4 | 0.00 | 0.00 | 0.00 | 92 | 1014.0 |
| 20260505025404 | 8 | 360 | 1.6 | 4.8 | 0.00 | 0.00 | 0.00 | 92 | 1014.1 |
| 20260505024716 | 8 | 360 | 1.6 | 4.8 | 0.00 | 0.00 | 0.00 | 92 | 1014.1 |
| 20260505023604 | 8 | 360 | 0.0 | 1.6 | 0.00 | 0.00 | 0.00 | 92 | 1014.2 |
| 20260505022703 | 8 | 360 | 0.0 | 1.6 | 0.00 | 0.00 | 0.00 | 92 | 1014.2 |
| 20260505021804 | 8 | 0 | 0.0 | 0.0 | 0.00 | 0.00 | 0.00 | 91 | 1014.0 |
| 20260505020903 | 8 | 360 | 0.0 | 4.8 | 0.00 | 0.00 | 0.00 | 91 | 1014.1 |
| 20260505020217 | 8 | 360 | 0.0 | 4.8 | 0.00 | 0.00 | 0.00 | 91 | 1013.9 |
| 20260505015404 | 8 | 360 | 0.0 | 3.2 | 0.00 | 0.00 | 0.00 | 91 | 1014.0 |
| 20260505014505 | 8 | 360 | 0.0 | 1.6 | 0.00 | 0.00 | 0.00 | 91 | 1014.2 |
| 20260505013603 | 8 | 360 | 0.0 | 1.6 | 0.00 | 0.00 | 0.00 | 90 | 1014.3 |
| 20260505012703 | 8 | 360 | 0.0 | 1.6 | 0.00 | 0.00 | 0.00 | 90 | 1014.4 |
| 20260505011803 | 9 | 360 | 0.0 | 1.6 | 0.00 | 0.00 | 0.00 | 90 | 1014.5 |
| 20260505010905 | 9 | 360 | 0.0 | 1.6 | 0.00 | 0.00 | 0.00 | 90 | 1014.6 |
| 20260505010005 | 9 | 0 | 0.0 | 0.0 | 0.00 | 0.00 | 0.00 | 89 | 1014.6 |
| 20260505005403 | 9 | 0 | 0.0 | 0.0 | 0.00 | 0.00 | 0.00 | 89 | 1014.5 |
| 20260505004506 | 10 | 0 | 0.0 | 0.0 | 0.00 | 0.00 | 0.00 | 89 | 1014.6 |
| 20260505003603 | 10 | 0 | 0.0 | 0.0 | 0.00 | 0.00 | 0.00 | 88 | 1014.7 |
| 20260505002918 | 10 | 360 | 0.0 | 1.6 | 0.00 | 0.00 | 0.00 | 88 | 1014.7 |
| 20260505002020 | 10 | 0 | 0.0 | 0.0 | 0.00 | 0.00 | 0.00 | 88 | 1014.7 |
| 20260505000903 | 11 | 360 | 0.0 | 3.2 | 0.00 | 0.00 | 0.00 | 87 | 1014.7 |
| 20260505000004 | 11 | 360 | 0.0 | 3.2 | 0.00 | 0.00 | 0.00 | 87 | 1014.7 |
| 20260504235403 | 11 | 1 | 1.6 | 6.4 | 0.00 | 0.00 | 0.00 | 86 | 1014.8 |
| 20260504234719 | 11 | 2 | 1.6 | 6.4 | 0.00 | 0.00 | 0.00 | 86 | 1014.8 |
| 20260504233605 | 11 | 356 | 0.0 | 3.2 | 0.00 | 0.00 | 0.00 | 86 | 1014.9 |
| 20260504232918 | 11 | 355 | 0.0 | 1.6 | 0.00 | 0.00 | 0.00 | 86 | 1015.0 |
| 20260504231803 | 11 | 355 | 0.0 | 1.6 | 0.00 | 0.00 | 0.00 | 86 | 1015.0 |
| 20260504230903 | 11 | 355 | 0.0 | 4.8 | 0.00 | 0.00 | 0.00 | 86 | 1014.9 |
| 20260504230005 | 11 | 360 | 0.0 | 4.8 | 0.00 | 0.00 | 0.00 | 86 | 1014.9 |
| 20260504225403 | 11 | 11 | 0.0 | 4.8 | 0.00 | 0.00 | 0.00 | 86 | 1015.0 |
| 20260504224504 | 12 | 353 | 0.0 | 4.8 | 0.00 | 0.00 | 0.00 | 86 | 1015.1 |